Syracuse, NY

9:13 AM EST on December 11, 2019 (GMT -0500)
Syracuse Hancock International

Weather History for KSYR - October, 2019

Change the Weather History Date:

Saturday, October 5, 2019

  Actual Average Record
Temperature  
Mean Temperature 47 °F 54 °F  
Max Temperature 61 °F 64 °F 85 °F (1941)
Min Temperature 33 °F 45 °F 28 °F (1984)
Degree Days  
Heating Degree Days 18 11  
Month to date heating degree days 52 52  
Since 1 July heating degree days 127 219  
Cooling Degree Days 0 0  
Month to date cooling degree days 11 0  
Year to date cooling degree days 622 565  
Moisture  
Dew Point 34 °F    
Average Humidity 67    
Maximum Humidity 96    
Minimum Humidity 32    
Precipitation  
Precipitation 0.00 in 0.12 in 2.19 in (1932)
Month to date precipitation 0.31 0.58  
Year to date precipitation 34.44 28.86  
Snow  
Snow 0.00 in 0.00 in T in (1965)
Month to date snowfall 0.0 0.0  
Since 1 July snowfall T 0.0  
Since 1 September snowfall T 0.0  
Snow Depth 0.00 in    
Sea Level Pressure  
Sea Level Pressure 30.38 in    
Wind  
Wind Speed 4 mph ()    
Max Wind Speed 13 mph    
Max Gust Speed 17 mph    
Visibility 10.0 miles    
Events      
T = Trace of Precipitation, MM = Missing Value Source: Averaged Metar Reports

Daily Weather History Graph

Daily Weather History Graph

Search for Another Location

Airport or City:

Astronomy

Oct. 05, 2019 Rise Set
Actual Time 7:06 AM EDT 6:39 PM EDT
Civil Twilight 6:37 AM EDT 7:07 PM EDT
Nautical Twilight 6:04 AM EDT 7:40 PM EDT
Astronomical Twilight 5:31 AM EDT 8:13 PM EDT
Moon 2:38 PM EDT (10/5) 11:51 PM EDT (10/5)
Length of Visible Light 12h 29m
Length of Day
11h 32m
Waxing Crescent, 50% of the Moon is Illuminated
Oct 5
Waxing Crescent
Oct 5
First Quarter
Oct 13
Full
Oct 21
Last Quarter
Oct 27
New

Hourly Weather History & Observations

Time (EDT) Temp. Windchill Dew Point Humidity Pressure Visibility Wind Dir Wind Speed Gust Speed Precip Events Conditions
12:54 AM 39.9 °F - 36.0 °F 86% 30.44 in 10.0 mi Calm Calm - N/A   Partly Cloudy
1:54 AM 37.0 °F - 35.1 °F 93% 30.45 in 10.0 mi Calm Calm - N/A   Partly Cloudy
2:54 AM 37.0 °F - 34.0 °F 89% 30.45 in 10.0 mi Calm Calm - N/A   Partly Cloudy
3:54 AM 37.0 °F - 34.0 °F 89% 30.45 in 10.0 mi Calm Calm - N/A   Clear
4:54 AM 36.0 °F - 33.1 °F 89% 30.46 in 10.0 mi Calm Calm - N/A   Partly Cloudy
5:54 AM 34.0 °F 31.0 °F 32.0 °F 92% 30.46 in 10.0 mi ESE 3.5 mph - N/A   Partly Cloudy
6:54 AM 33.1 °F 30.0 °F 30.9 °F 92% 30.47 in 10.0 mi ESE 3.5 mph - N/A   Partly Cloudy
7:54 AM 34.0 °F 29.8 °F 32.0 °F 92% 30.47 in 10.0 mi East 4.6 mph - N/A   Partly Cloudy
8:54 AM 39.0 °F 34.0 °F 36.0 °F 89% 30.48 in 10.0 mi East 6.9 mph - N/A   Partly Cloudy
9:54 AM 45.0 °F 41.8 °F 37.0 °F 74% 30.48 in 10.0 mi ENE 5.8 mph - N/A   Partly Cloudy
10:54 AM 48.9 °F - 37.9 °F 66% 30.46 in 10.0 mi East 4.6 mph - N/A   Partly Cloudy
11:54 AM 54.0 °F - 37.9 °F 55% 30.44 in 10.0 mi East 6.9 mph - N/A   Partly Cloudy
12:54 PM 55.9 °F - 32.0 °F 40% 30.41 in 10.0 mi SE 8.1 mph - N/A   Partly Cloudy
1:54 PM 59.0 °F - 30.9 °F 35% 30.38 in 10.0 mi East 8.1 mph - N/A   Partly Cloudy
2:54 PM 60.1 °F - 30.9 °F 33% 30.35 in 10.0 mi SE 6.9 mph - N/A   Partly Cloudy
3:54 PM 60.1 °F - 30.9 °F 33% 30.31 in 10.0 mi ESE 8.1 mph - N/A   Partly Cloudy
4:54 PM 60.1 °F - 32.0 °F 35% 30.29 in 10.0 mi East 5.8 mph - N/A   Partly Cloudy
5:54 PM 57.0 °F - 34.0 °F 42% 30.28 in 10.0 mi East 11.5 mph - N/A   Partly Cloudy
6:54 PM 51.1 °F - 37.0 °F 59% 30.27 in 10.0 mi East 10.4 mph - N/A   Scattered Clouds
7:54 PM 48.0 °F - 37.9 °F 68% 30.26 in 10.0 mi East 8.1 mph - N/A   Scattered Clouds
8:54 PM 48.0 °F - 37.0 °F 66% 30.26 in 10.0 mi East 8.1 mph - N/A   Mostly Cloudy
9:54 PM 46.9 °F - 35.1 °F 63% 30.25 in 10.0 mi East 6.9 mph - N/A   Mostly Cloudy
10:54 PM 46.0 °F 41.0 °F 36.0 °F 68% 30.23 in 10.0 mi East 10.4 mph - N/A   Mostly Cloudy
11:54 PM 46.0 °F 41.4 °F 35.1 °F 66% 30.22 in 10.0 mi East 9.2 mph - N/A   Mostly Cloudy